Flag for Norway Weather past 2 weeks in Rygge, Norway

Now
64 °F

Passing clouds.


Feels Like: 64 °F
Forecast: 57 / 66 °F
Wind: 12 mph from South

Location: Rygge

Current Time: Sep 2, 2014 at 2:05:06 PM

Latest Report: Sep 2, 2014 at 1:20 PM


Visibility: N/A

Pressure: 30.24 "Hg

Humidity: 73%

Dew point: 55 °F

Location of RyggeLocation

Historic Weather in Rygge — Graph

°F

Rygge temperature yesterday

Maximum temperature yesterday: 64 °F (at 12:20 PM)
Minimum temperature yesterday: 45 °F (at 4:50 AM)
Average temperature yesterday: 55 °F

Past Weeks' High & Low Weather Summary

 TemperatureHumidityPressure
High70 °F (Aug 28, 5:20 PM)100% (Aug 19, 4:50 AM)30.24 "Hg (Aug 19, 4:50 AM)
Low45 °F (Aug 24, 6:50 AM)38% (Aug 27, 4:20 PM)29.18 "Hg (Aug 18, 12:50 PM)
Average57 °F77%29.76 "Hg
* Reported Aug 18 12:20 PM — Sep 2 12:50 PM, Rygge, Weather by CustomWeather, © 2014

Note: Actual official high and low records may vary slightly from our data, if they occured in-between our weather recording intervals... More about our weather records

Advertising

Rygge weather history for previous 24 hours

 ConditionsComfort  
Time TempWeatherWind HumidityBarometerVisibility
12:50 PM
Sep 2
64 °FScattered clouds.9 mph73%30.24 "HgN/A
12:20 PM64 °FScattered clouds.9 mph73%30.24 "HgN/A
11:50 AM63 °FScattered clouds.9 mph77%30.24 "HgN/A
11:20 AM63 °FScattered clouds.9 mph77%30.24 "HgN/A
10:50 AM63 °FPassing clouds.9 mph77%30.24 "HgN/A
10:20 AM61 °FScattered clouds.7 mph83%30.21 "HgN/A
9:20 AM59 °FPassing clouds.3 mph82%30.21 "HgN/A
8:50 AM57 °FSunny.5 mph88%30.21 "Hg10 mi
8:20 AM55 °FSunny.6 mph94%30.21 "Hg10 mi
7:50 AM55 °FSunny.5 mph94%30.21 "Hg10 mi
7:20 AM55 °FPartly sunny.5 mph88%30.21 "HgN/A
6:50 AM55 °FPartly cloudy.5 mph88%30.18 "HgN/A
6:20 AM55 °FPartly cloudy.5 mph88%30.18 "HgN/A
5:50 AM55 °FPassing clouds.3 mph88%30.18 "HgN/A
5:20 AM55 °FLight rain. Mostly cloudy.3 mph88%30.18 "HgN/A
4:50 AM55 °FMostly cloudy.3 mph88%30.18 "HgN/A
4:20 AM55 °FMostly cloudy.5 mph82%30.18 "HgN/A
3:50 AM55 °FLight rain. Overcast.5 mph88%30.21 "HgN/A
3:20 AM55 °FPartly cloudy.3 mph88%30.18 "HgN/A
2:50 AM55 °FClear.2 mph88%30.18 "Hg10 mi
2:20 AM55 °FClear.3 mph82%30.18 "Hg10 mi
1:50 AM55 °FClear.3 mph82%30.18 "Hg10 mi
1:20 AM55 °FClear.5 mph82%30.18 "Hg10 mi
12:50 AM57 °FClear.3 mph82%30.18 "Hg10 mi
12:20 AM55 °FClear.1 mph88%30.18 "Hg10 mi
11:50 PM
Sep 1
57 °FClear.3 mph77%30.18 "Hg10 mi
11:20 PM57 °FClear.5 mph77%30.18 "Hg10 mi
10:50 PM57 °FClear.3 mph77%30.18 "Hg10 mi
10:20 PM59 °FClear.5 mph72%30.18 "Hg10 mi
9:50 PM59 °FClear.3 mph72%30.18 "Hg10 mi
9:20 PM59 °FClear.3 mph72%30.18 "Hg10 mi
8:50 PM59 °FSunny.3 mph72%30.18 "Hg10 mi
8:20 PM59 °FSunny.3 mph72%30.18 "Hg10 mi
7:50 PM61 °FSunny.3 mph68%30.18 "Hg10 mi
7:20 PM61 °FSunny.3 mph68%30.18 "Hg10 mi
6:50 PM61 °FSunny.6 mph68%30.18 "Hg10 mi
6:20 PM63 °FSunny.2 mph64%30.18 "Hg10 mi
5:50 PM63 °FSunny.1 mph64%30.18 "Hg10 mi
5:20 PM64 °FSunny.2 mph64%30.18 "Hg10 mi
4:50 PM64 °FPassing clouds.5 mph60%30.18 "HgN/A
4:20 PM63 °FPassing clouds.3 mph59%30.18 "HgN/A
3:50 PM63 °FPartly sunny.6 mph59%30.21 "HgN/A
3:20 PM63 °FBroken clouds.7 mph59%30.21 "HgN/A
2:50 PM63 °FBroken clouds.5 mph59%30.21 "HgN/A
2:20 PM63 °FPartly sunny.2 mph59%30.21 "HgN/A
Weather by CustomWeather, © 2014

See weather overviewHow to use our weather pages